This is the latest recevied weather packets stored in our database for station/object W5LND-10. If no packets are shown the sender has not sent any weather packets the latest 1 day(s).
| Time | Temp. | Humidity | Pressure | Rain* | Wind** | Luminosity | Snow |
|---|---|---|---|---|---|---|---|
| 1778037369 | 23.33° C | 35% | 1003.1 hPa | 0 mm | 0.89 m/s, 240° | 0 W/m² | - |
| 1778037069 | 23.89° C | 35% | 1003.1 hPa | 0 mm | 1.34 m/s, 235° | 0 W/m² | - |
| 1778036769 | 23.89° C | 34% | 1003.1 hPa | 0 mm | 0.89 m/s, 236° | 0 W/m² | - |
| 1778036469 | 23.89° C | 34% | 1002.9 hPa | 0 mm | 0.89 m/s, 248° | 0 W/m² | - |
| 1778036169 | 24.44° C | 34% | 1002.8 hPa | 0 mm | 0.89 m/s, 249° | 0 W/m² | - |
| 1778035869 | 24.44° C | 34% | 1002.7 hPa | 0 mm | 0.89 m/s, 252° | 0 W/m² | - |
| 1778035569 | 25° C | 33% | 1002.5 hPa | 0 mm | 0.45 m/s, 261° | 0 W/m² | - |
| 1778035269 | 25° C | 32% | 1002.3 hPa | 0 mm | 0 m/s | 0 W/m² | - |
| 1778034969 | 25.56° C | 31% | 1002.1 hPa | 0 mm | 0 m/s | 0 W/m² | - |
| 1778034669 | 25.56° C | 31% | 1002.2 hPa | 0 mm | 0.45 m/s, 288° | 0 W/m² | - |
| 1778034369 | 25.56° C | 30% | 1002.1 hPa | 0 mm | 0.45 m/s, 286° | 0 W/m² | - |
| 1778034069 | 25.56° C | 30% | 1002.2 hPa | 0 mm | 0.45 m/s, 286° | 0 W/m² | - |
| 1778033769 | 25.56° C | 30% | 1002.3 hPa | 0 mm | 0.45 m/s, 282° | 0 W/m² | - |
| 1778033469 | 26.11° C | 30% | 1002.5 hPa | 0 mm | 0.45 m/s, 281° | 0 W/m² | - |
| 1778033169 | 25.56° C | 30% | 1002.6 hPa | 0 mm | 0.45 m/s, 281° | 0 W/m² | - |
| 1778032869 | 26.11° C | 30% | 1002.5 hPa | 0 mm | 0.45 m/s, 277° | 0 W/m² | - |
| 1778032569 | 26.11° C | 29% | 1002.5 hPa | 0 mm | 0.45 m/s, 289° | 0 W/m² | - |
| 1778032269 | 26.11° C | 29% | 1002.5 hPa | 0 mm | 0.45 m/s, 287° | 0 W/m² | - |
| 1778031969 | 26.11° C | 29% | 1002.5 hPa | 0 mm | 0.89 m/s, 302° | 0 W/m² | - |
| 1778031669 | 26.11° C | 28% | 1002.3 hPa | 0 mm | 1.34 m/s, 307° | 0 W/m² | - |
| 1778031369 | 26.67° C | 28% | 1002.3 hPa | 0 mm | 1.34 m/s, 300° | 5 W/m² | - |
| 1778031069 | 26.67° C | 28% | 1002.2 hPa | 0 mm | 1.79 m/s, 297° | 0 W/m² | - |
| 1778030769 | 26.67° C | 28% | 1002.2 hPa | 0 mm | 1.79 m/s, 311° | 0 W/m² | - |
| 1778030469 | 26.67° C | 28% | 1002.2 hPa | 0 mm | 1.79 m/s, 292° | 5 W/m² | - |
| 1778030169 | 26.67° C | 27% | 1002.2 hPa | 0 mm | 2.24 m/s, 309° | 11 W/m² | - |
* Rain latest hour (hover to see other rain measurements)
** Current wind speed in m/s (hover to see current wind gust speed)